Simultaneous Nadir Overpasses (SNOs) Predictions

Prediction of SNOs between METOP-B and NOAA-19 Satellite Orbit:

Table of predicted SNOs for the next 14.0 days since TLE Epoch: 3/9/2018
Index Date (METOP-B) Time (METOP-B) Lat,Lon (METOP-B) SZA (METOP-B ) Date (NOAA-19) Time (NOAA-19) Lat,Lon (NOAA-19) SZA (NOAA-19 ) Distance(km) Time Diff (sec)
1 03/11/2018 18:40:27 -78.31, 89.63 98.15 03/11/2018 18:39:18 -78.30, 87.20 98.23 54.78 69
2 03/11/2018 19:31:13 78.10,-104.20 81.60 03/11/2018 19:30:15 78.07,-104.18 81.56 3.63 58
3 03/11/2018 20:21:54 -78.10, 63.12 98.42 03/11/2018 20:21:13 -78.06, 63.10 98.46 3.71 41
4 03/11/2018 21:12:35 78.08,-129.64 81.55 03/11/2018 21:12:16 78.06,-129.62 81.52 2.80 19
5 03/11/2018 22:03:16 -78.08, 37.69 98.47 03/11/2018 22:03:14 -78.05, 37.65 98.50 2.93 2
6 03/11/2018 22:53:57 78.06,-155.07 81.50 03/11/2018 22:54:17 78.05,-155.06 81.49 1.97 20
7 03/11/2018 23:44:38 -78.06, 12.26 98.52 03/11/2018 23:45:15 -78.04, 12.21 98.53 2.26 37
8 03/12/2018 00:35:19 78.05, 179.50 81.46 03/12/2018 00:36:18 78.04, 179.50 81.45 1.16 59
9 03/12/2018 01:26:01 -78.00, -13.38 98.61 03/12/2018 01:27:15 -78.00, -13.02 98.60 8.47 74
10 03/22/2018 15:40:28 78.14, -46.34 77.38 03/22/2018 15:39:25 78.11, -46.37 77.35 2.85 63
11 03/22/2018 16:31:10 -78.10, 120.82 102.68 03/22/2018 16:30:21 -78.11, 120.89 102.67 1.99 49
12 03/22/2018 17:21:50 78.12, -71.77 77.33 03/22/2018 17:21:26 78.10, -71.82 77.31 2.15 24
13 03/22/2018 18:12:32 -78.09, 95.38 102.72 03/22/2018 18:12:22 -78.10, 95.44 102.71 2.34 10
14 03/22/2018 19:03:11 78.10, -97.20 77.28 03/22/2018 19:03:26 78.09, -97.26 77.28 1.69 15
15 03/22/2018 19:53:53 -78.07, 69.95 102.77 03/22/2018 19:54:22 -78.09, 70.00 102.74 2.99 29
16 03/22/2018 20:44:33 78.08,-122.64 77.24 03/22/2018 20:45:27 78.08,-122.71 77.24 1.68 54
17 03/22/2018 21:35:15 -78.05, 44.52 102.82 03/22/2018 21:36:23 -78.08, 44.55 102.78 3.79 68




NCC Satellite Simultaneous Nadir Overpasses (SNOs) Prediction Service
